Location: Prague
(50.0830°N, 14.4670°E)
Time: 00:35:31
(UTC+01:00)

UKube-1 - Visible Passes

Search period start: 07 December 2021 00:00
Search period end: 17 December 2021 00:00
Orbit: 611 x 617 km, 98.4° (Epoch: 06 December)

Date Brightness Start Highest point End Pass type
(mag) Time Alt. Az. Time Alt. Az. Time Alt. Az.
09 Dec ? 06:13:01 10° ENE 06:13:36 10° NE 06:14:12 10° NE visible
10 Dec ? 06:26:43 10° E 06:28:52 14° NE 06:31:01 10° NNE visible
11 Dec ? 06:41:16 10° E 06:44:10 18° ENE 06:47:04 10° NNE visible
12 Dec ? 06:56:05 10° ESE 06:59:30 23° ENE 07:02:56 10° N visible
13 Dec ? 07:11:04 10° SE 07:14:51 31° ENE 07:18:40 10° N visible
16 Dec ? 06:24:02 10° E 06:25:51 12° NE 06:27:40 10° NNE visible
